PA2JOK Weather Reports


Display with metric or nautical units.
time (UTC)temp
F
wind
direction
speed
MPH
gust
MPH
rain 1hr
in
rain 24hr
in
rain mn
in
humidity
%
barometer
mb
20260506193302 52 25 0.0 4.0 0.00 0.00 0.00 58 1011.4
20260506191802 52 29 0.0 8.0 0.00 0.00 0.00 58 1011.3
20260506190303 52 60 6.0 10.0 0.00 0.00 0.00 57 1011.3
20260506184803 52 148 0.0 8.0 0.00 0.00 0.00 57 1011.0
20260506183303 52 149 2.0 8.0 0.00 0.00 0.00 57 1010.9
20260506181802 53 108 0.0 4.0 0.00 0.00 0.00 57 1010.8
20260506180303 52 71 0.0 4.0 0.00 0.00 0.00 57 1010.6
20260506174802 52 65 4.0 4.0 0.00 0.00 0.00 57 1010.3
20260506173303 53 94 0.0 4.0 0.00 0.00 0.00 57 1010.2
20260506171802 53 84 2.0 6.0 0.00 0.00 0.00 56 1010.1
20260506170304 53 141 0.0 6.0 0.00 0.00 0.00 56 1010.0
20260506164802 53 95 2.0 8.0 0.00 0.00 0.00 56 1010.1
20260506163303 52 95 4.0 10.0 0.00 0.00 0.00 55 1010.1
20260506161803 53 65 6.0 14.0 0.00 0.00 0.00 56 1010.2
20260506160302 53 91 4.0 12.0 0.00 0.00 0.00 55 1010.2
20260506154803 53 93 0.0 10.0 0.00 0.00 0.00 53 1010.1
20260506153302 53 117 0.0 16.0 0.00 0.00 0.00 53 1010.1
20260506151803 53 97 2.0 10.0 0.00 0.00 0.00 53 1010.0
20260506150304 52 76 4.0 12.0 0.00 0.00 0.00 55 1010.0
20260506144802 52 104 8.0 14.0 0.00 0.00 0.00 55 1010.0
20260506143303 52 127 0.0 17.0 0.00 0.00 0.00 56 1010.1
20260506141803 53 177 0.0 12.0 0.00 0.00 0.00 54 1009.9
20260506140303 53 60 6.0 12.0 0.00 0.00 0.00 53 1009.9
20260506134803 53 128 0.0 17.0 0.00 0.00 0.00 52 1009.9
20260506133303 53 57 14.0 23.0 0.00 0.00 0.00 51 1009.9
20260506131802 53 89 10.0 32.0 0.00 0.00 0.00 49 1009.7
20260506130302 54 42 6.0 17.0 0.00 0.00 0.00 48 1009.6
20260506124802 54 74 0.0 14.0 0.00 0.00 0.00 50 1009.5
20260506123303 54 67 10.0 21.0 0.00 0.00 0.00 53 1009.4
20260506121803 55 96 2.0 12.0 0.00 0.00 0.00 52 1009.3
20260506120303 55 46 0.0 10.0 0.00 0.00 0.00 53 1009.2
20260506114803 56 18 6.0 14.0 0.00 0.00 0.00 59 1009.1
20260506113303 57 4 4.0 12.0 0.00 0.00 0.00 57 1009.1
20260506111802 57 33 4.0 12.0 0.00 0.00 0.00 56 1009.1
20260506110302 58 20 2.0 16.0 0.00 0.00 0.00 45 1009.0
20260506104803 56 187 0.0 21.0 0.00 0.00 0.00 47 1009.2
20260506103303 56 99 4.0 12.0 0.00 0.00 0.00 48 1009.0
20260506101803 55 137 4.0 16.0 0.00 0.00 0.00 49 1009.0
20260506100302 55 115 2.0 21.0 0.00 0.00 0.00 51 1008.8
20260506094803 55 52 10.0 17.0 0.00 0.00 0.00 51 1008.9
20260506093302 54 79 19.0 27.0 0.00 0.00 0.00 56 1008.9
20260506091803 54 103 8.0 21.0 0.00 0.00 0.00 58 1008.8
20260506090302 53 86 2.0 19.0 0.00 0.00 0.00 62 1008.8
20260506084802 54 115 2.0 12.0 0.00 0.00 0.00 60 1008.6
20260506083303 53 135 0.0 12.0 0.00 0.00 0.00 61 1008.5
20260506081803 54 15 2.0 10.0 0.00 0.00 0.00 66 1008.3
20260506080303 54 23 6.0 10.0 0.00 0.00 0.00 68 1008.2
20260506073303 53 55 2.0 12.0 0.00 0.00 0.00 72 1008.2
20260506071803 52 15 0.0 12.0 0.00 0.00 0.00 74 1008.2
20260506070303 51 48 0.0 14.0 0.00 0.00 0.00 75 1008.3
20260506061803 50 55 2.0 6.0 0.00 0.00 0.00 80 1007.9
20260506060303 50 19 4.0 6.0 0.00 0.00 0.00 80 1007.9
20260506050303 49 12 0.0 4.0 0.00 0.00 0.00 78 1008.1
20260506044803 49 19 0.0 6.0 0.00 0.00 0.00 78 1008.0
20260506043302 48 17 0.0 6.0 0.00 0.00 0.00 78 1008.0
20260506041803 48 48 0.0 8.0 0.00 0.00 0.00 78 1008.0
20260506040302 48 359 6.0 6.0 0.00 0.00 0.00 78 1008.1
20260506034803 48 58 2.0 8.0 0.00 0.00 0.00 78 1008.1
20260506033302 48 24 0.0 8.0 0.00 0.00 0.00 78 1008.3
20260506031803 48 66 0.0 10.0 0.00 0.00 0.00 77 1008.4
20260506030303 48 80 0.0 8.0 0.00 0.00 0.00 76 1008.4
20260506024803 48 26 2.0 8.0 0.00 0.00 0.00 75 1008.5
20260506023302 48 156 2.0 8.0 0.00 0.00 0.00 75 1008.6
20260506021802 48 146 0.0 8.0 0.00 0.00 0.00 74 1008.5
20260506020303 49 97 2.0 12.0 0.00 0.00 0.00 73 1008.5
20260506014803 49 111 0.0 10.0 0.00 0.00 0.00 73 1008.5
20260506013302 49 77 2.0 10.0 0.00 0.00 0.00 73 1008.6
20260506011803 49 61 2.0 10.0 0.00 0.00 0.00 74 1008.7
20260506010303 49 51 2.0 6.0 0.00 0.00 0.00 75 1008.8
20260506004803 49 33 2.0 8.0 0.00 0.00 0.00 75 1008.9
20260506003302 49 26 0.0 4.0 0.00 0.00 0.00 75 1009.0
20260506001802 49 105 0.0 6.0 0.00 0.00 0.00 75 1009.2
20260506000303 49 151 0.0 2.0 0.00 0.00 0.00 75 1009.3
20260505234803 49 39 2.0 10.0 0.00 0.00 0.00 74 1009.4
20260505233302 49 85 0.0 12.0 0.00 0.00 0.00 74 1009.4
20260505231803 49 152 2.0 10.0 0.00 0.00 0.00 73 1009.6
20260505230303 49 64 0.0 6.0 0.00 0.00 0.00 71 1009.5
20260505224803 49 23 2.0 6.0 0.00 0.00 0.00 71 1009.7
20260505223302 49 27 0.0 8.0 0.00 0.00 0.00 70 1009.8
20260505221803 49 116 2.0 6.0 0.00 0.00 0.00 70 1009.8
20260505220302 49 78 0.0 6.0 0.00 0.00 0.00 70 1010.0
20260505214803 49 169 2.0 4.0 0.00 0.00 0.00 71 1010.0
20260505213303 49 26 0.0 8.0 0.00 0.00 0.00 71 1010.1
20260505211802 50 32 6.0 8.0 0.00 0.00 0.00 71 1010.0
20260505210302 50 25 0.0 10.0 0.00 0.00 0.00 71 1010.0
20260505204803 50 23 4.0 8.0 0.00 0.00 0.00 71 1010.1
20260505203303 51 58 4.0 10.0 0.00 0.00 0.00 70 1010.1
20260505201803 51 101 2.0 10.0 0.00 0.00 0.00 69 1010.3
20260505200303 51 69 0.0 6.0 0.00 0.00 0.00 69 1010.1
20260505194802 51 54 0.0 8.0 0.00 0.00 0.00 69 1010.1